Location: Gad�tanya
(48.0500°N, 20.8500°E)
Time: 11:57:28
(UTC+00:00)

Cosmos 1821 Rocket - Pass Details

Date: 05 July 2020
Orbit: 946 x 1004 km, 82.9° (Epoch: 14 August)

Event Time Altitude Azimuth Distance (km) Brightness Sun altitude
Exits shadow 23:05:47 32° 176° (S) 1,570 4.5 -19.1°
Maximum altitude 23:08:47 77° 96° (E) 979 4.0 -19.0°
Drops below altitude 10° 23:14:53 10° 12° (NNE) 2,679 7.6 -18.9°
Sets 23:17:23 0° 11° (N) 3,627 8.7 -18.8°
